This is the latest recevied weather packets stored in our database for station/object KY0TEQ-13. If no packets are shown the sender has not sent any weather packets the latest 10 day(s).
| Time | Temp. | Humidity | Pressure | Rain* | Wind** | Luminosity | Snow |
|---|---|---|---|---|---|---|---|
| 1788448543 | 17.78° C | 47% | 1310 hPa | 0 mm | - | 316 W/m² | - |
| 1788448239 | 17.78° C | 50% | 1310 hPa | 0 mm | - | 35 W/m² | - |
| 1788447938 | 17.22° C | 54% | 1310.1 hPa | 0 mm | - | 288 W/m² | - |
| 1788447634 | 17.22° C | 52% | 1309.9 hPa | 0 mm | - | 115 W/m² | - |
| 1788447328 | 17.78° C | 52% | 1310 hPa | 0 mm | - | 248 W/m² | - |
| 1788447024 | 17.22° C | 51% | 1310 hPa | 0 mm | - | 235 W/m² | - |
| 1788446722 | 16.67° C | 52% | 1309.9 hPa | 0 mm | - | 209 W/m² | - |
| 1788446419 | 17.22° C | 53% | 1309.9 hPa | 0 mm | - | 201 W/m² | - |
| 1788446115 | 16.67° C | 53% | 1309.9 hPa | 0 mm | - | 185 W/m² | - |
| 1788445810 | 16.67° C | 55% | 1309.9 hPa | 0 mm | - | 171 W/m² | - |
| 1788445505 | 16.67° C | 55% | 1309.7 hPa | 0 mm | - | 154 W/m² | - |
| 1788445202 | 16.11° C | 57% | 1309.7 hPa | 0 mm | - | 146 W/m² | - |
| 1788444897 | 16.67° C | 54% | 1309.9 hPa | 0 mm | - | 122 W/m² | - |
| 1788444592 | 15.56° C | 58% | 1309.7 hPa | 0 mm | - | 107 W/m² | - |
| 1788444288 | 15° C | 61% | 1309.9 hPa | 0 mm | - | 91 W/m² | - |
| 1788443983 | 14.44° C | 60% | 1309.6 hPa | 0 mm | - | 80 W/m² | - |
| 1788443678 | 14.44° C | 64% | 1309.6 hPa | 0 mm | - | 71 W/m² | - |
| 1788443373 | 13.89° C | 64% | 1309.9 hPa | 0 mm | - | 61 W/m² | - |
| 1788443072 | 13.33° C | 66% | 1309.7 hPa | 0 mm | - | 57 W/m² | - |
| 1788442769 | 12.22° C | 69% | 1309.7 hPa | 0 mm | - | 51 W/m² | - |
| 1788442466 | 11.67° C | 71% | 1309.7 hPa | 0 mm | - | 44 W/m² | - |
| 1788442161 | 11.11° C | 73% | 1309.6 hPa | 0 mm | - | 38 W/m² | - |
| 1788441856 | 10.56° C | 75% | 1309.4 hPa | 0 mm | - | 31 W/m² | - |
| 1788441551 | 10.56° C | 74% | 1309.5 hPa | 0 mm | - | 26 W/m² | - |
| 1788441250 | 10.56° C | 75% | 1309.4 hPa | 0 mm | - | 22 W/m² | - |
* Rain latest hour (hover to see other rain measurements)
** Current wind speed in m/s (hover to see current wind gust speed)